Miscellaneous Local Product
Issued by NWS Hastings, NE

Home | Current Version | Previous Version | Graphics & Text | Print | Product List | Glossary On
Versions: 1 2 3 4 5 6 7 8 9 10 11 12 13 14 15 16 17 18 19 20 21 22 23 24 25 26 27 28 29 30 31 32 33 34 35 36 37 38 39 40 41 42 43 44 45 46 47 48 49 50
182
AXUS43 KGID 251702
MISGRI

GID CWA HOURLY WEATHER ROUNDUP
NATIONAL WEATHER SERVICE HASTINGS NE
1200 PM CDT MON JUL 25 2016

NOTE: "FAIR" INDICATES FEW OR NO CLOUDS BELOW 12,000 FEET WITH NO
SIGNIFICANT WEATHER AND/OR OBSTRUCTIONS TO VISIBILITY.

...SOUTH CENTRAL NEBRASKA...

CITY           SKY/WX    TMP DP  RH WIND       PRES   REMARKS
GRAND ISLAND   CLOUDY    80  64  58 SE12G18   30.16F
HASTINGS       MOSUNNY   79  65  62 SE7       30.17F
KEARNEY        SUNNY     81  64  57 SE12      30.17F
ORD            SUNNY     79  55  43 S9        30.15F
YORK           SUNNY     79  64  61 S5        30.16F
AURORA         MOSUNNY   80  62  54 S10       30.17S
LEXINGTON      SUNNY     79  63  57 SE12      30.17F
HOLDREGE       SUNNY     77  63  61 E12       30.17S
HEBRON         CLOUDY    78  62  58 E7        30.14S

...NEBRASKA PANHANDLE...

CITY           SKY/WX    TMP DP  RH WIND       PRES   REMARKS
CHADRON        SUNNY     83  54  36 S18       30.11F
ALLIANCE       SUNNY     79  57  46 S21G26    30.17F
SCOTTSBLUFF    SUNNY     82  56  40 SE13      30.15F
SIDNEY         SUNNY     79  57  46 S18G28    30.20F

...WESTERN AND NORTH CENTRAL NEBRASKA...

CITY           SKY/WX    TMP DP  RH WIND       PRES   REMARKS
VALENTINE      SUNNY     84  51  31 S20G26    30.14F
AINSWORTH      SUNNY     82  50  32 SE14      30.16F
ONEILL         SUNNY     84  52  33 S14       30.16F
BROKEN BOW     SUNNY     79  61  53 SE14      30.18S
IMPERIAL       SUNNY     78  62  57 SE14      30.18F
NORTH PLATTE   SUNNY     79  65  62 E12       30.17F
MCCOOK         SUNNY     81  62  52 SE13      30.16F

...EASTERN NEBRASKA...

CITY           SKY/WX    TMP DP  RH WIND       PRES   REMARKS
NORFOLK        SUNNY     80  62  54 S9G17     30.16S
SO SIOUX CITY  SUNNY     84  64  50 S7        30.13F
TEKAMAH        SUNNY     82  63  52 VRB6      30.13F
COLUMBUS       CLOUDY    79  63  57 S7        30.16F
ALBION         SUNNY     78  61  55 S9        30.17S
OMAHA EPPLEY   MOSUNNY   83  64  52 CALM      30.13S
OFFUTT AFB     MOSUNNY   81  66  60 SE8       30.14R
MILLARD        CLOUDY    81  66  60 S5        30.14S
LINCOLN        SUNNY     81  65  58 VRB6      30.15F
NEBRASKA CITY  CLOUDY    78  66  65 CALM      30.14F
BEATRICE       MOSUNNY   80  60  49 E7        30.13F
FALLS CITY     PTSUNNY   78  68  71 E6        30.12S

...NORTHERN KANSAS...

CITY           SKY/WX    TMP DP  RH WIND       PRES   REMARKS
GOODLAND       SUNNY     79  62  56 SE13      30.19F
HILL CITY      SUNNY     79  69  71 SE10      30.16F
NORTON         SUNNY     81  59  47 SE9       30.16S
SMITH CENTER   MOSUNNY   75  68  78 E8        30.16R
HAYS           CLOUDY    75  63  64 S6        30.15R
RUSSELL        CLOUDY    75  69  81 NE6       30.13R
CONCORDIA      CLOUDY    73  67  81 VRB3      30.13S
SALINA         CLOUDY    73  69  87 CALM      30.12S
TOPEKA         CLOUDY    75  70  84 CALM      30.08F



USA.gov is the U.S. government's official web portal to all federal, state and local government web resources and services.